Location: Chlebowo
(53.3083°N, 14.5953°E)
Time: 18:01:13
(UTC+00:00)

Daily predictions for brighter satellites

Satellite Brightness Start Highest point End
(mag) Time Altitude Azimuth Time Altitude Azimuth Time Altitude Azimuth
Cosmos 2173 Rocket 4.3 19:03:28 10° N 19:09:38 53° ENE 19:15:40 10° SSE
IRS-1A Rocket 4.3 19:04:21 10° SSE 19:09:54 72° ENE 19:15:26 10° NNW
SPOT 5 4.1 19:06:22 10° ESE 19:10:39 30° ENE 19:15:07 10° N
CZ-4C R/B 2.7 19:07:20 10° S 19:11:39 32° ESE 19:16:47 10° ENE
Cosmos 44 4.5 19:08:52 10° NW 19:12:41 29° NNE 19:16:32 10° E
Cosmos 1812 3.8 19:11:51 10° NNW 19:15:31 45° W 19:19:09 10° SSW
USA 306 3.8 19:12:29 10° SSW 19:15:56 26° SE 19:19:23 10° E
CARTOSAT-1 4.0 19:12:46 10° SE 19:16:54 47° ENE 19:21:04 10° N
GP-B 4.0 19:13:24 10° N 19:17:45 54° W 19:22:04 10° SSW
Cosmos 1356 Rocket 3.8 19:14:11 10° SSE 19:18:12 45° E 19:22:18 10° NNE
Cosmos 1862 3.4 19:14:19 10° S 19:18:18 62° E 19:22:20 10° NNE
ERBS 3.2 19:16:19 10° SSW 19:18:42 23° SE 19:21:06 10° E
Ariane Rocket 3.1 19:13:43 10° SSE 19:18:42 64° ENE 19:23:43 10° N
Cosmos 773 Rocket 4.2 19:18:32 10° S 19:23:28 49° ESE 19:28:26 10° NE
CENTAUR R/B 4.2 19:20:37 10° WNW 19:27:13 39° N 19:34:58 10° ENE
Genesis I 3.9 19:24:53 10° S 19:28:35 35° ESE 19:32:19 10° ENE
Terra 3.0 19:24:49 10° ESE 19:28:52 29° ENE 19:32:57 10° N
H-2A R/B 4.0 19:31:00 10° SSW 19:35:06 39° W 19:39:20 10° NNW
Cosmos 292 Rocket 3.8 19:30:56 10° NNW 19:35:49 89° NE 19:40:41 10° SSE
Cosmos 2016 Rocket 4.3 19:30:23 10° N 19:36:33 55° ENE 19:42:45 10° SSE
NOSS 2-3 (D) 3.8 19:33:13 10° SSW 19:36:56 41° SE 19:41:18 10° NE
Cosmos 1459 Rocket 4.0 19:33:33 10° N 19:39:49 80° ENE 19:46:09 10° SSE
NOSS 2-3 (C) 3.7 19:36:20 10° SSW 19:40:08 46° SE 19:44:38 10° NE
Meteor 1-10 Rocket 4.3 19:38:51 10° NNW 19:44:29 84° W 19:50:01 10° S
Cosmos 2263 Rocket 2.6 19:39:07 10° SW 19:44:39 67° NW 19:50:15 10° NNE
Spot 2 Rocket 3.8 19:41:35 11° SE 19:46:16 53° ENE 19:51:13 10° N
NOSS 3-1 (C) 3.5 19:43:08 10° SSW 19:48:09 47° ESE 19:54:06 10° NE
Cosmos 1844 Rocket 3.1 19:43:53 10° S 19:48:59 39° ESE 19:54:08 10° NE
Okean 3 Rocket 3.9 19:46:21 10° SSE 19:50:37 46° E 19:54:52 10° NNE
Cosmos 1725 Rocket 4.1 19:45:19 10° N 19:51:34 64° ENE 19:57:31 11° SSE
ATLAS 5 CENTAUR R/B 3.1 19:47:43 10° WNW 19:52:43 42° SW 19:58:42 10° SSE
Cosmos 1802 Rocket 4.1 19:47:16 10° N 19:53:46 81° E 20:00:12 10° SSE
Cosmos 1346 Rocket 3.0 19:54:49 10° N 19:58:47 55° ENE 20:01:45 17° SSE
Cosmos 1356 3.8 19:55:58 10° N 19:59:06 42° ENE 20:01:04 19° SE
Cosmos 1727 Rocket 4.3 19:53:04 10° SSW 19:59:13 72° WNW 20:05:25 10° N
ERS-1 Rocket 3.2 19:55:03 14° SE 19:59:18 59° ENE 20:04:16 10° N
Cosmos 1515 Rocket 3.8 19:55:44 10° N 20:00:01 55° ENE 20:03:22 16° SSE
Resurs 01 Rocket 2.9 19:56:46 10° SSW 20:00:56 39° W 20:05:07 10° NNW
Cosmos 1151 Rocket 3.7 19:57:19 10° NNW 20:01:31 53° W 20:05:41 10° S
Cosmos 1864 Rocket 4.5 19:55:34 10° N 20:01:43 76° ENE 20:07:33 12° SSE
USA 229 DEB 4.3 19:56:23 10° S 20:01:44 30° ESE 20:07:26 10° ENE
USA 229 4.3 19:56:31 10° S 20:01:51 29° ESE 20:07:31 10° ENE
Cosmos 2123 Rocket 4.1 19:56:16 10° S 20:02:24 58° E 20:08:33 10° NNE
Cosmos 1408 Rocket 4.2 20:00:49 15° SSE 20:03:57 36° E 20:08:02 10° NNE
Cosmos 1315 Rocket 4.3 20:03:03 17° ESE 20:04:33 21° E 20:07:35 10° NE
ATLAS CENTAUR R/B 4.2 20:03:59 10° NW 20:07:47 22° N 20:11:31 10° NE
USA 305 3.0 20:03:48 10° SW 20:07:47 49° SSE 20:11:47 10° ENE
Cosmos 2100 Rocket 4.4 20:02:58 10° NNW 20:09:06 63° W 20:15:10 10° S
USA 234 4.3 20:04:26 10° ENE 20:09:15 21° SE 20:14:04 10° S
USA 307 3.1 20:07:00 10° SW 20:10:57 44° SSE 20:14:55 10° ENE
SPOT 3 Rocket 3.8 20:08:26 11° S 20:13:30 72° WSW 20:18:44 10° NNW
ASTEX 1 4.0 20:09:08 10° N 20:13:57 59° WNW 20:18:44 10° SSW
COSMOS 2406 4.5 20:15:16 10° NNW 20:20:20 32° NE 20:24:57 12° E
Okean 1 3.6 20:16:36 10° N 20:20:32 53° ENE 20:22:47 23° SE
H-2A R/B 2.7 20:16:29 10° N 20:20:48 57° WNW 20:25:00 10° SSW
Cosmos 158 Rocket 4.1 20:16:03 10° SSW 20:21:27 89° WNW 20:26:52 10° NNE
Cosmos 1766 Rocket 3.7 20:17:10 10° SSW 20:21:33 76° WNW 20:26:01 10° N
NOSS 2-2 (D) 4.4 20:22:27 20° ESE 20:22:27 20° ESE 20:24:26 10° ENE
ARIANE 5 R/B 3.0 20:19:07 21° SE 20:21:46 50° ENE 20:26:00 10° N
Meteor 1-27 Rocket 4.0 20:18:03 10° NNW 20:23:37 67° W 20:28:55 12° S
Cosmos 1743 Rocket 4.4 20:23:04 22° SE 20:25:02 33° E 20:28:57 10° NNE
NOSS 2-3 (E) 3.6 20:21:12 10° SW 20:25:13 86° NW 20:30:10 10° NE
Meteor 1-19 Rocket 4.2 20:20:46 10° NNW 20:26:30 78° ENE 20:30:31 19° SSE
Cosmos 2056 Rocket 4.1 20:22:00 10° NNW 20:27:01 45° NE 20:30:16 20° ESE
Cosmos 921 Rocket 4.5 20:24:10 10° SW 20:28:07 38° WNW 20:32:04 10° N
NOSS 3-1 (A) 3.4 20:23:19 10° SSW 20:28:24 49° SE 20:34:25 10° NE
Meteor 1-25 Rocket 4.3 20:24:38 14° S 20:29:28 60° E 20:34:58 10° NNE
Cosmos 405 3.8 20:29:24 27° ESE 20:30:01 29° E 20:32:59 10° NNE
Cosmos 1441 Rocket 3.1 20:27:05 10° NNW 20:30:52 79° ENE 20:32:50 27° SSE
CZ-4B R/B 2.1 20:28:16 10° N 20:31:20 50° WNW 20:34:23 10° SSW
Cosmos 1833 Rocket 3.1 20:32:31 10° NNW 20:38:06 55° NE 20:41:43 22° ESE
NOSS 8 (A) 4.4 20:36:48 10° NW 20:39:56 85° NE 20:41:42 30° SE
Helios 1A Rocket 3.0 20:37:28 23° S 20:39:56 77° WSW 20:44:02 10° NNW
Cosmos 2228 Rocket 3.6 20:36:24 10° N 20:40:52 48° ENE 20:43:03 27° SE
Cosmos 1400 Rocket 3.5 20:37:44 10° SSW 20:41:45 55° WNW 20:45:44 10° N
USA 308 2.7 20:39:26 10° WSW 20:43:32 62° SSE 20:47:37 10° ENE
ATLAS 3B R/B 3.6 20:36:57 10° WSW 20:43:36 52° NNW 20:50:43 10° NE
Cosmos 1666 2.7 20:44:23 32° SSE 20:45:49 55° E 20:49:30 10° NNE
Cosmos 2233 Rocket 4.1 20:40:09 10° NNW 20:46:28 84° W 20:51:08 19° S
SPOT 5 3.6 20:44:39 16° S 20:48:28 52° W 20:53:31 10° NNW
Cosmos 1378 3.0 20:46:28 10° N 20:50:08 75° ENE 20:51:28 37° SSE
IRAS Rocket 4.3 20:46:00 10° NNE 20:51:31 81° WNW 20:57:00 10° SSW
Cosmos 1500 Rocket 3.5 20:49:44 27° S 20:52:00 65° E 20:56:21 10° NNE
ADEOS Rocket 4.2 20:47:33 18° ESE 20:52:20 39° ENE 20:58:21 10° N
ERBS 2.1 20:50:31 10° WSW 20:53:28 73° NNW 20:56:24 10° ENE
Meteor 1-20 Rocket 4.2 20:48:12 11° SSW 20:53:38 84° WNW 20:59:22 10° NNE
Cosmos 2082 Rocket 3.2 20:48:42 10° NNW 20:53:56 37° NE 20:57:46 17° ESE
Cosmos 44 3.0 20:49:55 10° NW 20:54:17 78° SW 20:56:13 33° SSE
USA 306 2.7 20:50:49 10° WSW 20:54:57 74° SSE 20:59:05 10° ENE
CZ-4C R/B 2.6 20:54:36 10° WSW 20:59:40 66° NW 21:06:04 10° NE
Cosmos 1844 3.8 20:56:23 10° SSW 21:02:11 84° WNW 21:07:57 10° NNE
Cosmos 1538 Rocket 4.2 20:58:14 10° SW 21:03:23 70° WNW 21:08:37 10° NNE
Cosmos 1500 3.6 21:00:59 19° SSW 21:03:25 59° WNW 21:07:08 10° N
Cosmos 1602 4.5 21:00:59 15° SSW 21:04:04 52° WNW 21:07:54 10° N
Cosmos 1680 Rocket 3.7 21:02:47 29° SSE 21:05:08 50° ESE 21:10:10 10° NE
Genesis I 4.5 21:02:01 10° WSW 21:05:56 45° NW 21:09:54 10° NE
Terra 2.5 21:03:28 21° SSW 21:06:25 50° W 21:11:05 10° NNW
CRYOSAT 2 4.3 21:05:39 31° SSE 21:08:02 82° E 21:12:56 10° N
CZ-2C R/B 3.8 21:08:46 10° NNE 21:13:15 77° WNW 21:16:15 21° SSW
Cosmos 923 Rocket 3.9 21:09:47 21° SSW 21:13:19 73° ESE 21:18:36 10° NNE
Cosmos 2278 Rocket 3.2 21:12:34 26° ESE 21:13:29 27° ESE 21:18:11 10° NE
ASTRO F (AKARI) 3.9 21:13:37 74° SSE 21:13:50 86° E 21:16:50 10° NNW
BREEZE-M DEB (TANK) 3.9 21:08:25 10° W 21:16:34 37° SW 21:17:35 32° S
CENTAUR R/B 3.6 21:11:56 10° NW 21:19:26 58° NNE 21:27:56 11° ESE
BREEZE-M DEB (TANK) 2.9 21:17:51 10° WSW 21:26:23 - ESE 21:19:57 45° SSW
NOSS 2-2 (E) 2.9 21:21:27 20° SW 21:23:38 85° NW 21:27:23 10° NE
Cosmos 1452 Rocket 4.2 21:19:07 10° NNW 21:24:13 46° NE 21:26:44 27° ESE
Cosmos 1420 Rocket 4.0 21:23:05 10° NNW 21:28:24 82° WSW 21:30:30 38° SSE
NOSS 2-2 (C) 2.7 21:27:36 48° SW 21:28:27 83° SE 21:32:07 10° NE
Cosmos 1464 Rocket 4.0 21:22:16 10° N 21:28:39 77° ENE 21:31:42 33° SSE
Cosmos 2112 Rocket 3.9 21:28:35 33° S 21:30:52 67° ESE 21:36:02 10° NNE
Sich 1 2.9 21:30:51 41° S 21:32:19 87° ESE 21:36:44 10° NNE
Cosmos 1844 Rocket 3.6 21:27:25 10° SW 21:32:49 49° NW 21:38:15 10° NNE
Cosmos 1371 Rocket 4.3 21:28:05 10° NNW 21:33:22 62° WSW 21:35:30 35° S
Cosmos 1624 Rocket 4.2 21:31:49 10° NNW 21:37:02 62° WSW 21:39:05 36° S
NOSS 3-1 (C) 4.1 21:33:27 10° WSW 21:38:54 55° NNW 21:45:34 10° NE
Cosmos 1862 Rocket 3.7 21:34:54 10° N 21:39:20 66° ENE 21:40:28 47° SE
ALOS 2 3.3 21:39:26 34° ESE 21:40:41 43° ENE 21:44:51 10° N
Cosmos 1315 Rocket 3.7 21:38:39 23° SW 21:40:46 45° WNW 21:44:39 10° N
Cosmos 2034 Rocket 4.0 21:34:58 10° N 21:41:11 69° ENE 21:43:55 35° SSE
Cosmos 1943 Rocket 4.0 21:42:25 15° E 21:42:37 15° E 21:45:47 10° ENE
Cosmos 389 Rocket 2.4 21:44:12 61° WSW 21:44:33 68° WNW 21:47:53 10° N
USA 305 2.8 21:42:57 10° W 21:47:06 84° N 21:51:15 10° E
ATLAS CENTAUR R/B 3.7 21:43:48 10° NW 21:47:57 27° NNE 21:51:57 10° ENE
Cosmos 1544 3.8 21:47:52 36° WSW 21:48:54 48° WNW 21:52:25 10° N
Meteor 2-4 Rocket 4.4 21:43:54 10° NNW 21:49:38 50° W 21:52:37 27° SSW
USA 307 2.7 21:46:08 10° W 21:50:17 86° N 21:54:26 10° E
Cosmos 1805 Rocket 4.1 21:49:09 29° SW 21:51:07 54° WNW 21:55:24 10° N
USA 229 DEB 3.6 21:45:33 10° SW 21:51:59 83° NW 21:59:02 10° NE
USA 229 3.6 21:45:39 10° SW 21:52:05 83° NW 21:59:08 10° NE
USA 234 3.2 21:46:46 10° ENE 21:53:14 59° SE 21:59:41 10° SW
ARIANE 5 R/B 4.4 21:56:39 18° SW 21:58:29 24° W 22:02:01 10° NW
Cosmos 1066 Rocket 4.3 21:54:48 10° NNW 22:00:42 79° WSW 22:02:57 40° S
Meteor 1-14 Rocket 4.2 21:58:20 32° SSW 22:01:00 76° WNW 22:06:39 10° NNE
Cosmos 1666 Rocket 3.4 22:02:22 55° S 22:03:19 90° WSW 22:07:43 10° N
Cosmos 2098 Rocket 4.3 22:00:30 29° SSW 22:04:10 77° WNW 22:11:27 10° N
COSMOS 2406 3.2 21:59:28 10° NW 22:05:09 71° WSW 22:07:00 43° S
Cosmos 1816 Rocket 4.5 22:05:54 39° SSE 22:08:18 72° E 22:14:34 10° NNE
Cosmos 2056 Rocket 4.5 22:04:21 10° NW 22:09:02 35° WSW 22:10:35 29° SW
NOSS 2-2 (D) 3.9 22:09:40 19° WSW 22:11:49 47° NNW 22:15:30 10° NE
Okean 3 3.8 22:11:56 10° N 22:16:03 50° ENE 22:16:38 46° ESE
ERS-2 4.5 22:14:06 10° ENE 22:15:27 13° E 22:15:27 13° E
NOSS 3-1 (A) 4.1 22:13:46 10° WSW 22:19:14 54° NNW 22:25:55 10° NE
H-2A R/B 3.8 22:16:00 10° NNE 22:19:58 46° E 22:20:00 46° E
SAR-Lupe-4 4.1 22:17:21 10° N 22:20:51 51° WNW 22:21:19 47° W
Cosmos 1833 Rocket 3.7 22:16:47 10° NW 22:21:50 34° WSW 22:23:24 29° SW
Tsikada Rocket 4.0 22:20:15 41° SSE 22:22:26 68° E 22:28:40 10° NNE
USA 308 2.8 22:18:50 10° W 22:23:00 80° N 22:27:09 10° E
Cosmos 1110 Rocket 3.9 22:18:15 10° NNW 22:23:34 82° ENE 22:25:04 48° SE
NOSS 3-2 (C) 4.2 22:16:42 10° NW 22:23:44 68° NE 22:31:10 13° ESE
Cosmos 1048 Rocket 4.2 22:24:09 45° SE 22:24:54 49° ESE 22:29:55 10° NE
Spot 4 4.2 22:24:23 44° SSW 22:25:33 55° W 22:30:22 10° NNW
Okean 1-7 3.0 22:21:18 10° N 22:25:44 74° E 22:26:21 62° SE
Cosmos 2279 Rocket 4.4 22:20:40 10° N 22:26:44 52° ENE 22:29:16 33° SE
Cosmos 1626 4.0 22:24:53 10° NNE 22:27:44 21° ENE 22:28:17 20° E
ERBS 3.4 22:25:57 10° WNW 22:28:44 37° N 22:29:13 34° NNE
Cosmos 1470 Rocket 3.5 22:29:23 64° S 22:30:04 86° ESE 22:34:36 10° NNE
USA 306 2.8 22:30:17 10° W 22:34:26 80° N 22:36:59 22° E
Cosmos 1633 Rocket 3.5 22:33:53 43° WSW 22:34:57 55° WNW 22:39:19 10° N
ATLAS 3B R/B 4.3 22:29:22 10° WNW 22:35:49 36° N 22:42:37 10° ENE
ADEOS Rocket 3.6 22:34:30 35° SSW 22:37:38 60° W 22:44:16 10° NNW
Cosmos 44 Rocket 4.1 22:33:11 10° NW 22:37:46 47° NE 22:40:31 22° E
Cosmos 2082 Rocket 2.4 22:32:48 10° NW 22:38:17 55° WSW 22:39:36 45° SSW
Cosmos 1674 4.0 22:36:58 10° N 22:40:16 29° ENE 22:40:39 28° E
USA 238 DEB 4.0 22:34:20 10° NW 22:41:30 74° NE 22:47:29 18° ESE
USA 238 4.0 22:34:26 10° NW 22:41:36 74° NE 22:47:38 17° ESE
Cosmos 1536 2.9 22:43:17 62° WSW 22:43:37 66° WNW 22:47:35 10° N
Lacrosse 5 rocket 3.1 22:47:06 19° E 22:47:06 19° E 22:48:19 10° ENE
Meteor 1-4 Rocket 3.8 22:47:06 31° ENE 22:47:06 31° ENE 22:49:47 10° NNE
Meteor 2-15 Rocket 4.4 22:42:17 10° NNW 22:48:26 84° W 22:50:27 45° S
GEOS 3 Rocket 3.9 22:45:57 23° ESE 22:49:05 63° NE 22:54:11 10° NW
CZ-4C R/B 4.0 22:44:03 10° WNW 22:49:16 35° N 22:55:38 10° ENE
Cosmos 1743 3.1 22:51:50 53° W 22:52:06 54° WNW 22:55:56 10° N
Cosmos 192 4.2 22:49:47 10° NNW 22:54:47 89° WSW 22:55:50 57° SSE
Meteor 1-11 Rocket 3.9 22:55:05 38° SW 22:57:05 63° WNW 23:02:36 10° N
Cosmos 2278 Rocket 2.4 22:54:23 31° SW 22:57:09 67° NW 23:02:50 10° NNE
Cosmos 1331 Rocket 4.0 22:54:13 10° NNW 22:59:20 61° WSW 23:00:13 52° SSW
NOSS 3-2 (A) 4.0 22:52:46 10° NW 23:00:01 69° SW 23:03:55 34° SSE
Cosmos 1703 Rocket 3.8 22:58:48 10° NNW 23:03:12 55° W 23:03:40 52° WSW
Cosmos 494 Rocket 3.9 23:02:38 52° SSW 23:03:56 90° SE 23:09:13 10° NNE
Cosmos 1452 Rocket 4.3 23:01:28 10° NW 23:06:15 35° WSW 23:07:02 34° WSW
Cosmos 1869 Rocket 3.5 23:06:45 61° ESE 23:07:05 64° E 23:11:24 10° NNE
CZ-2D R/B 4.4 23:06:39 10° NE 23:09:12 13° E 23:11:46 10° ESE
CENTAUR R/B 3.2 23:02:42 10° NW 23:10:38 67° SW 23:15:03 33° SSE
IRIDIUM 104 4.5 23:09:24 46° SW 23:10:46 64° W 23:15:59 10° N
Cosmos 1634 Rocket 4.2 23:06:17 10° NNW 23:12:27 59° W 23:14:33 40° SSW
Cosmos 405 Rocket 3.3 23:10:55 10° NNW 23:14:09 45° WNW 23:14:09 45° WNW
Cosmos 1707 2.6 23:10:39 10° NNW 23:14:30 83° WNW 23:14:30 83° WNW
SL-16 R/B 4.2 23:11:27 10° ESE 23:16:34 28° NE 23:21:43 10° N
Nimbus 7 Rocket 4.5 23:10:33 10° NNE 23:16:38 70° ESE 23:18:37 44° S
Cosmos 1842 3.9 23:13:19 10° NNW 23:16:54 43° W 23:16:54 43° W
ALOS 2 3.9 23:16:49 27° WSW 23:17:10 28° W 23:20:58 10° NW
Meteor 2-19 Rocket 4.4 23:16:44 44° SSW 23:18:48 81° W 23:24:55 10° N
SL-24 R/B - RUBIN 2 4.3 23:17:15 10° NW 23:21:38 54° NE 23:24:44 20° ESE
Cosmos 1943 Rocket 2.1 23:23:55 49° S 23:25:26 75° ESE 23:31:05 10° NE
USA 305 2.6 23:22:28 10° WNW 23:26:37 86° SSW 23:26:53 78° ESE
ATLAS CENTAUR R/B 1.8 23:22:39 10° NW 23:27:29 71° NE 23:29:19 35° ESE
Cosmos 2242 Rocket 4.1 23:23:49 10° NNW 23:28:12 46° W 23:28:42 44° WSW
USA 307 2.7 23:25:42 10° W 23:29:51 89° SW 23:31:40 33° ESE
Aureole 3 Rocket 4.2 23:27:24 10° NNW 23:33:24 88° WSW 23:37:03 35° S
Lacrosse 5 2.9 23:36:10 29° SE 23:36:10 29° SE 23:40:09 10° ENE
USA 234 3.4 23:29:54 10° ENE 23:36:28 76° NNW 23:43:00 10° W
Cosmos 1975 2.6 23:39:20 79° SW 23:39:30 83° W 23:43:32 10° N
SL-24 R/B 3.5 23:41:53 85° SSE 23:41:58 89° ENE 23:45:53 10° NNW
Cosmos 1461 4.3 23:39:35 10° NW 23:43:39 40° NE 23:47:50 10° ESE
PSLV R/B 3.8 23:43:44 10° N 23:47:57 58° WNW 23:48:38 50° WSW
KORONAS-FOTON 4.2 23:44:17 10° NNW 23:47:45 51° W 23:47:45 51° W
Cosmos 1269 Rocket 4.3 23:47:59 43° SSE 23:49:16 55° ESE 23:54:28 10° NNE
Nadezhda 4 Rocket 4.0 23:47:07 40° SSE 23:49:28 71° E 23:55:41 10° NNE
ERS-2 2.2 23:46:12 10° N 23:49:46 63° WNW 23:49:47 63° WNW
Cosmos 2369 Rocket 2.6 23:49:16 39° SSE 23:50:43 48° ESE 23:56:08 10° NE
NOSS 3-4 (A) 4.3 23:51:42 28° SE 23:52:56 30° ESE 23:58:10 10° ENE
NOSS 3-4 (C) 4.3 23:51:46 28° SE 23:53:03 30° ESE 23:58:17 10° ENE
